Regional Weather Roundup
Issued by NWS Glasgow, MT

Home | Current Version | Previous Version | Text Only | Print | Product List | Glossary On
Versions: 1 2 3 4 5 6 7 8 9 10 11 12 13 14 15 16 17 18 19 20 21 22 23 24 25 26 27 28 29 30 31 32 33 34 35 36 37 38 39 40 41 42 43 44 45 46 47 48 49 50
000
ASUS45 KGGW 262215
RWRGGW
HOURLY REGIONAL WEATHER ROUNDUP FOR NORTHEAST MONTANA
NATIONAL WEATHER SERVICE GLASGOW MONTANA
300 PM MST SUN FEB 26 2017

NOTE: "FAIR" INDICATES FEW OR NO CLOUDS BELOW 12,000 FEET WITH NO
SIGNIFICANT WEATHER AND/OR OBSTRUCTIONS TO VISISBILITY.

NORTHEAST MONTANA


CITY           SKY/WX    TMP DP  RH WIND       PRES   REMARKS
GLASGOW        PTSUNNY   25  13  60 N14       29.78S
PLENTYWOOD       N/A     24  18  77 NW7G20      N/A
WOLF POINT     CLOUDY    28  16  60 NW12      29.79R
JORDAN           N/A     29  14  53 NW13      29.76R
WINNETT          N/A     32  11  41 NE10G20     N/A
SIDNEY         PTSUNNY   28  17  63 NW13      29.79R
GLENDIVE       CLOUDY    27  17  66 NW13      29.77R
MALTA            N/A     27  16  63 NW9G18      N/A
SCOBEY           N/A     23   8  52 NW15      29.76R

FORT PECK REPORTS


CITY           SKY/WX    TMP DP  RH WIND       PRES   REMARKS
FORT PECK        N/A     26  20  77 NW13        N/A
THE PINES        N/A     29  16  58 CALM        N/A

SOUTHEAST MONTANA


CITY           SKY/WX    TMP DP  RH WIND       PRES   REMARKS
BILLINGS       CLOUDY    34  11  38 VRB3      29.68F
MILES CITY     MOSUNNY   34  15  46 NW14      29.75R
BAKER          CLOUDY    28  20  71 NW21      29.73R
LIVINGSTON     CLOUDY    31  12  45 W17       29.62F

CENTRAL MONTANA


CITY           SKY/WX    TMP DP  RH WIND       PRES   REMARKS
HAVRE          CLOUDY    24  12  60 N9        29.80S
LEWISTOWN      CLOUDY    25  17  72 N12       29.67S
GREAT FALLS    LGT SNOW  21  15  78 N13       29.74S VSB 3/4
CUT BANK       CLOUDY    18   7  62 N15       29.75F
HELENA         LGT SNOW  24  20  84 N8        29.67F FOG
BUTTE          CLOUDY    25  11  55 S13       29.58F
BOZEMAN        CLOUDY    28  19  69 E10       29.65F

WESTERN MONTANA


CITY           SKY/WX    TMP DP  RH WIND       PRES   REMARKS
MISSOULA       LGT SNOW  30  26  85 SE6       29.64S VSB 3/4
KALISPELL      NOT AVBL

NORTH DAKOTA


CITY           SKY/WX    TMP DP  RH WIND       PRES   REMARKS
WILLISTON      MOSUNNY   24  15  68 NW9       29.78R
DICKINSON      CLOUDY    27  18  69 N15       29.70R
MINOT          SUNNY     21   9  59 S10       29.77R
BISMARCK       MIX PCPN  22  15  75 E10       29.79R

SOUTHERN SASKATCHEWAN


CITY           SKY/WX    TMP DP  RH WIND       PRES   REMARKS
REGINA         FLURRIES  21  14  73 NW15G22   29.73S
ESTEVAN        PTSUNNY   21  14  73 NW9       29.74S
SWIFT CURRENT  LGT SNOW  18  14  86 NW22      29.72R VSB 3/4




USA.gov is the U.S. government's official web portal to all federal, state and local government web resources and services.